Temp_Advection
nan nan nan nan nan nan nan nan nan nan nan nan nan nan nan nan nan nan nan nan nan nan nan nan nan nan nan nan nan nan nan nan nan nan nan nan nan nan nan nan nan nan nan nan nan
nan -0 -0 -0 -0 -0 -1 -0 1 0 -0 -0 -0 -0 -0 -0 -1 -1 0 0 -0 -0 -0 -1 -1 -1 -1 -1 -0 -1 -1 -1 -0 -1 -0 -0 -0 0 0 -0 -0 -0 -0 -1 nan
nan -0 -0 -0 -0 -0 -0 -0 0 0 -0 -0 -0 -0 -0 0 -0 -0 0 0 -0 -0 -0 -1 -0 -1 -1 -0 -0 -0 -1 -0 0 1 -0 -0 -0 0 -1 1 0 -2 -0 -1 nan
nan 0 -0 -0 -0 -0 -0 -0 0 0 -0 -0 -0 -0 -0 -1 -0 -0 0 -0 -0 -0 -0 -0 -0 -1 -1 -0 -0 -1 -0 -0 0 -0 0 -0 -1 -4 -4 0 -3 0 -0 -1 nan
nan 0 -0 -0 -0 -0 -0 -0 0 0 -0 -0 -0 -0 0 -0 -1 -0 0 -0 -0 -0 -0 -0 -0 -0 -0 -0 -0 -0 0 0 -0 0 -0 0 0 -0 -1 -1 -1 -0 -0 -0 nan
nan 0 -0 -0 0 -0 -0 -0 -0 -0 -0 -0 -0 0 -0 -1 -0 0 -0 0 0 -0 -1 -0 -0 -0 -0 -0 -0 0 0 0 -0 0 0 0 -0 -0 -0 -0 -1 -0 -1 -0 nan
nan 0 -0 -0 0 -0 -0 -0 -0 -0 -0 -0 -0 0 -1 -2 0 0 0 0 -0 -0 -0 -0 -0 -0 -0 -0 0 0 -0 0 0 -0 0 -0 0 -1 -0 -0 -0 -0 -0 -0 nan
nan 0 -0 -0 -0 -0 -0 -0 -0 -0 -0 -0 0 -0 -1 -1 -0 -0 -0 -0 -0 -0 0 0 0 -0 -0 -0 -0 -0 0 -0 0 -0 -0 0 -0 -0 -0 -0 -1 -0 -0 -0 nan
nan 0 0 -0 -0 -0 -0 -0 -0 -0 -0 -0 0 -0 -1 -0 -0 0 -0 -0 -0 0 0 0 -0 -1 -0 -0 0 0 0 0 0 -0 -0 0 -1 -0 -0 -0 -1 -0 -0 -0 nan
nan -0 -0 -0 -0 -0 -0 -0 -0 -0 -0 -0 0 -1 -2 -0 0 0 -0 -0 -0 -0 -0 -0 -1 -0 -0 0 -0 0 -0 -0 -0 0 0 0 -0 -0 -0 -0 -0 -0 -0 -0 nan
nan -0 -0 -0 -0 -0 -0 0 0 -0 -1 -1 -0 -1 0 0 -0 -0 -0 -0 -0 -1 -0 -0 -0 -0 -0 -0 -0 -0 -0 -0 0 0 0 0 -0 -0 -0 0 -0 -0 -0 -0 nan
nan -0 -0 -0 0 -0 -0 -0 -0 0 -1 -0 0 -0 -0 -0 -0 -0 -0 -0 -0 -0 0 -0 -0 -1 -0 0 -0 0 0 0 0 0 -0 -0 0 0 0 0 0 0 0 -0 nan
nan -0 -0 -0 -0 -0 -0 -1 -0 -0 -1 -1 -1 -1 -0 -0 -1 0 -0 -0 -0 0 -0 -0 -0 -0 -0 0 -0 0 0 -0 0 0 -0 -0 0 0 0 0 0 0 0 0 nan
nan 0 -0 -0 0 0 -1 -0 0 -1 -1 -0 -1 -0 -0 -0 -0 0 0 -0 0 0 -0 0 0 -0 -0 0 0 1 0 0 0 0 -0 0 0 1 0 -0 0 0 1 1 nan
nan -0 -0 0 -0 -0 0 0 0 -0 -1 1 -1 -0 -0 -0 -0 -0 -0 -0 -0 -0 0 -0 -0 -0 0 -0 0 0 -1 0 -0 -0 0 0 1 0 -2 -0 -0 0 0 0 nan
nan 0 -0 -1 -1 -0 0 -0 -0 -1 -1 0 0 -0 -0 -0 0 -0 -0 0 -0 -0 0 -0 0 -0 -0 -0 -0 -0 0 0 0 1 0 -0 1 -2 -1 -0 -1 -0 0 0 nan
nan -0 -1 -0 0 0 0 -0 -1 -1 -0 -0 -0 -0 0 -0 -0 -0 -0 -0 -0 0 -0 0 0 0 0 -0 0 0 0 0 1 0 -0 -0 -0 -1 -0 -0 -0 0 -0 0 nan
nan 0 0 0 -0 -0 -0 -1 -1 -2 -0 0 -0 0 0 0 0 0 -0 -0 -1 -0 0 0 0 0 0 -0 0 0 0 1 0 -0 -1 0 -0 -0 -0 -0 0 -0 0 0 nan
nan 0 -2 -2 -1 0 -1 -1 -2 -1 -0 0 0 0 0 0 0 0 -0 -0 0 0 0 -0 -0 0 0 0 -0 0 -0 -0 0 0 -0 -1 -1 0 0 0 0 -0 -0 -0 nan
nan -1 -4 -1 0 -0 -1 -2 -2 -0 0 0 0 -0 -0 0 -0 -0 -0 0 0 -0 -0 0 0 0 0 0 0 -0 -0 0 0 0 -1 -1 -0 -0 -0 0 0 -0 -0 -0 nan
nan -1 -1 1 -1 -2 -1 -2 -1 0 0 0 -0 -0 -0 -0 -0 -0 0 0 0 0 -0 0 0 0 0 -0 -0 -0 0 -0 -0 0 0 -0 -0 -0 -0 0 0 0 0 -0 nan
nan -1 1 1 -1 -2 -1 -2 -0 -0 -0 -0 -0 -0 -0 0 0 -0 -0 0 0 0 0 0 0 0 -0 0 -0 -0 -0 0 0 0 0 -0 -1 0 0 0 0 0 0 0 nan
nan -0 -0 2 -1 -1 -2 -0 0 0 -0 -0 -0 -0 0 0 -0 -0 1 -1 0 -0 0 1 0 -0 -0 -0 -0 0 -0 0 0 0 0 -0 -0 -0 -0 0 -0 0 1 0 nan
nan -1 -1 -1 -3 -1 -1 0 0 -0 0 -0 -0 0 0 0 0 0 0 -0 0 0 0 0 -0 0 -0 -0 0 0 -0 0 1 -0 -0 -1 -1 -0 -0 -0 0 0 0 0 nan
nan -1 -2 -2 -1 -1 0 -0 -0 -0 -0 0 0 -0 -0 0 0 0 0 -0 -0 0 -0 -0 0 -0 0 0 -0 -0 -0 0 0 -0 -0 -1 -1 -0 0 0 0 0 0 1 nan
nan -0 -1 -1 -1 0 0 -1 -0 -1 0 -0 -0 -0 0 0 0 0 0 -0 -0 -1 -0 0 0 0 -0 -0 0 -0 -0 -0 -0 -0 -0 0 -0 -0 -0 0 0 0 1 1 nan
nan nan nan nan nan nan nan nan nan nan nan nan nan nan nan nan nan nan nan nan nan nan nan nan nan nan nan nan nan nan nan nan nan nan nan nan nan nan nan nan nan nan nan nan nan
Wind_Speed
17 18 18 19 21 22 23 24 25 24 22 21 17 16 17 15 17 19 20 9 8 14 8 9 16 14 11 14 14 13 11 15 15 7 9 9 10 7 12 10 5 16 5 12 18
17 18 19 19 20 22 22 24 25 23 20 19 16 14 14 15 19 21 7 9 12 15 11 17 17 16 16 15 13 13 13 16 4 14 11 6 8 13 11 5 13 5 12 18 20
18 18 18 18 20 21 21 23 23 21 18 17 15 13 11 13 13 1 6 7 12 16 12 13 12 15 17 13 17 18 15 5 7 15 10 12 10 15 13 11 19 21 21 21 20
17 17 17 18 19 20 20 22 21 18 17 15 12 11 10 8 4 7 4 6 15 18 11 12 14 15 13 13 18 15 15 6 7 1 2 5 7 23 30 8 21 17 22 23 21
17 16 17 17 18 19 19 21 18 16 15 12 9 8 8 6 10 6 2 8 14 16 13 12 12 13 12 13 16 12 4 2 3 5 7 7 7 14 14 14 20 23 22 21 21
17 16 16 17 17 18 19 19 16 14 13 10 8 7 6 9 1 2 2 9 8 14 14 12 10 11 8 12 13 12 9 3 7 7 7 8 15 12 8 17 22 23 22 21 19
18 15 16 16 17 17 17 17 14 13 11 7 7 7 9 15 1 3 5 5 11 15 13 13 11 6 5 6 4 5 7 11 3 10 10 13 8 12 12 18 19 19 19 18 18
18 15 15 15 16 17 15 13 12 10 8 6 5 5 10 6 8 9 10 9 11 14 13 7 10 12 10 2 9 12 12 13 19 12 8 12 13 8 15 19 19 21 20 20 19
18 15 15 15 15 16 12 9 9 7 6 4 4 3 7 7 7 4 9 4 6 8 10 8 5 11 7 11 10 7 9 14 9 8 12 13 18 12 17 20 22 20 19 19 19
18 16 16 14 15 13 9 4 5 4 5 5 6 6 8 9 3 4 5 7 4 10 8 6 10 8 10 11 8 6 11 15 13 10 10 3 16 10 16 16 17 20 19 17 17
17 16 16 14 14 10 4 2 4 4 11 12 2 7 4 3 7 8 5 6 7 12 7 8 6 11 8 10 7 13 9 13 15 6 9 10 14 14 14 16 17 17 18 18 17
18 17 15 14 13 10 10 8 7 3 8 19 17 13 12 6 4 10 6 9 9 7 8 8 13 19 7 10 9 4 5 12 9 9 9 10 10 11 13 15 17 18 18 18 17
19 17 15 14 12 14 15 17 3 5 7 12 16 11 7 9 12 16 9 8 10 15 9 8 12 6 8 10 11 8 10 11 13 11 13 12 13 13 11 11 11 15 17 16 17
21 18 16 12 9 8 12 10 10 8 5 11 9 9 8 8 8 7 6 5 7 8 12 3 6 11 13 7 5 8 4 11 4 11 13 16 10 11 15 14 13 14 14 16 18
23 19 17 12 7 9 2 4 6 4 5 16 13 8 8 13 2 11 7 7 12 7 7 8 9 9 9 5 5 17 10 7 7 11 12 17 9 9 18 15 16 15 16 17 17
24 21 18 20 23 16 7 4 6 5 7 8 10 11 11 12 7 6 12 6 7 7 7 7 3 4 7 3 2 5 4 6 6 10 7 16 12 17 15 15 16 18 18 19 21
25 22 23 21 8 11 9 6 6 9 7 12 16 14 15 10 9 11 14 14 11 8 10 7 7 4 6 7 7 9 9 8 9 8 10 5 7 11 10 7 14 19 22 21 21
26 23 25 24 14 8 10 8 12 14 13 3 15 14 12 10 9 9 12 16 17 16 13 10 9 12 8 10 5 10 13 9 7 7 11 6 7 4 8 2 9 22 23 23 24
26 24 28 31 25 12 13 10 14 9 11 9 11 13 12 9 6 11 14 14 16 12 13 10 5 6 2 3 8 9 8 7 7 3 7 13 18 10 5 6 12 21 23 25 25
24 24 30 31 28 13 8 16 19 2 5 11 16 15 14 14 11 13 12 4 7 5 5 1 2 4 5 5 6 8 2 5 6 6 11 10 7 6 8 8 12 18 24 25 26
21 11 18 27 23 16 11 17 16 9 9 11 16 12 13 13 14 15 12 9 6 7 5 6 8 7 4 10 11 7 10 7 5 3 5 4 3 8 4 3 12 18 24 25 27
25 11 21 28 16 20 14 22 11 11 10 8 7 9 11 11 13 11 13 6 8 8 10 6 5 5 13 5 5 10 8 11 5 6 3 3 8 2 3 3 9 14 20 22 25
28 18 20 28 13 13 20 21 13 10 12 12 11 9 8 10 10 11 11 6 6 8 5 7 7 7 7 6 7 9 10 9 4 1 7 3 4 6 6 4 8 13 19 23 25
28 11 11 15 30 19 23 18 17 7 9 12 10 11 10 8 6 7 8 4 5 5 0 0 12 10 10 5 1 12 12 12 13 7 9 10 13 7 9 7 8 11 16 23 26
27 15 20 13 21 21 21 19 21 12 10 15 11 15 13 8 9 8 9 6 6 6 6 5 8 12 12 5 5 8 9 13 16 15 13 11 11 8 6 6 7 10 13 20 22
22 22 28 27 33 20 19 22 23 18 14 14 10 15 11 8 11 10 12 10 7 10 9 5 5 2 5 8 8 11 12 13 14 16 16 16 15 12 11 3 9 8 12 16 20
25 21 29 21 23 18 17 19 21 15 3 5 12 8 10 5 8 10 9 4 3 7 10 5 5 4 5 3 4 6 15 16 15 16 12 15 15 9 3 6 9 10 11 15 17
Wind_Direction
283 288 291 297 302 305 309 310 308 307 309 309 307 302 294 297 298 295 279 250 238 203 196 191 194 206 217 226 227 233 259 246 233 138 193 128 144 133 116 136 169 234 139 147 158
282 286 290 296 300 305 309 308 305 307 308 304 302 296 297 308 305 289 301 236 214 195 184 183 187 197 214 220 210 219 232 249 46 119 59 328 157 196 213 135 203 139 117 140 148
278 282 288 296 301 304 307 306 304 305 304 300 300 298 305 317 316 270 311 238 188 171 177 192 201 199 226 214 214 220 261 334 206 114 163 200 197 198 34 211 155 138 145 146 143
273 282 290 296 301 302 307 305 303 303 299 296 298 299 306 315 313 350 319 182 174 167 193 201 200 210 231 209 215 248 248 296 20 15 155 253 103 100 124 185 253 135 145 144 144
272 282 291 296 300 303 307 305 302 299 292 291 290 296 304 276 266 315 193 161 173 183 192 203 213 218 225 208 205 224 232 205 273 190 227 145 160 77 93 101 117 131 141 145 147
270 280 288 294 299 304 306 303 299 295 288 283 277 289 296 260 202 261 54 193 186 187 202 212 231 240 281 207 204 204 248 128 167 132 156 163 118 125 80 109 123 139 144 146 150
268 276 286 293 297 302 304 301 298 290 279 273 274 278 267 235 193 238 232 206 209 207 221 230 241 250 283 233 248 228 190 170 131 171 168 131 138 96 125 125 136 143 143 148 150
267 272 282 289 294 300 300 298 294 285 276 266 269 277 259 260 248 244 234 254 225 230 226 250 239 249 267 341 202 213 166 152 175 184 155 227 117 131 147 139 144 147 152 156 159
266 270 279 286 291 294 295 297 288 276 261 235 257 268 261 251 268 274 222 225 207 201 211 231 206 218 198 219 192 186 200 136 168 198 175 231 125 139 165 170 154 154 157 159 162
262 266 274 281 285 287 287 289 281 261 232 238 248 257 241 208 206 222 199 178 155 174 169 179 198 219 216 215 201 158 185 183 160 165 220 203 117 143 176 177 163 166 166 168 171
256 261 270 274 278 274 245 140 280 229 222 212 276 255 154 263 253 221 188 200 165 207 216 190 226 212 185 220 272 208 193 182 130 150 216 164 156 160 177 184 181 185 175 181 181
249 254 263 267 269 248 207 221 311 349 276 234 247 262 268 277 243 219 214 227 217 233 227 163 185 237 249 223 248 226 210 118 125 171 247 184 152 162 176 190 188 193 195 191 181
242 247 254 259 257 239 219 214 296 338 254 187 225 244 237 203 218 213 213 230 224 227 215 255 162 177 201 205 219 234 227 158 167 184 242 191 161 172 177 179 206 201 199 194 189
238 240 245 244 253 228 236 224 260 287 257 164 202 206 193 207 232 232 229 279 199 283 103 227 173 191 190 191 280 189 101 212 250 196 212 212 236 183 171 177 191 193 194 191 190
233 234 236 218 184 184 170 202 219 161 232 158 158 148 174 208 93 187 206 233 246 206 250 151 180 183 204 70 297 121 245 175 195 223 231 213 250 166 244 188 185 186 190 185 180
229 230 228 215 221 180 211 190 171 225 222 169 163 183 188 201 216 137 180 210 251 254 260 169 49 327 73 122 264 139 163 207 238 257 263 260 234 160 194 205 178 181 182 174 168
225 226 227 223 211 210 193 169 210 218 155 168 187 180 203 179 186 204 183 189 205 221 217 177 163 120 176 142 146 199 224 222 223 225 236 273 293 272 261 172 179 184 180 178 175
220 224 226 218 215 196 184 201 232 212 201 151 181 187 207 166 198 206 197 205 207 230 212 208 183 182 180 256 219 219 249 248 280 274 272 139 248 283 21 104 204 179 185 183 182
216 222 229 217 199 174 206 211 217 209 195 182 188 191 199 179 230 207 214 207 199 221 261 214 155 107 237 229 269 188 247 317 297 299 282 287 283 195 143 158 192 178 186 187 188
204 218 231 214 199 192 217 226 225 241 224 197 192 199 193 194 203 204 197 172 165 241 286 250 223 187 134 212 217 275 30 217 226 258 257 273 254 296 168 199 205 185 189 191 193
192 204 224 209 184 202 213 210 224 187 197 204 205 193 220 186 203 200 192 143 197 179 237 260 250 152 173 210 226 184 231 232 298 275 281 296 296 46 358 233 201 205 195 196 199
188 209 177 181 183 204 212 214 213 183 195 209 276 190 224 189 207 220 226 219 170 190 207 207 243 181 223 79 310 302 257 206 226 212 228 306 282 129 119 250 207 216 202 204 207
193 179 177 173 196 201 212 212 193 196 195 195 203 211 213 205 207 222 217 85 176 210 223 183 225 220 224 203 216 238 228 236 223 324 238 239 279 170 150 219 225 217 212 211 211
183 180 158 197 207 196 207 194 200 219 190 196 200 180 187 200 216 196 195 156 190 206 223 133 242 227 243 269 274 208 238 218 215 225 244 246 283 221 198 220 215 229 230 214 218
207 196 180 181 200 201 205 202 197 179 222 192 190 201 198 210 192 209 187 161 184 179 196 236 236 235 261 286 290 281 256 222 233 237 257 266 278 299 313 294 259 222 234 233 223
211 192 181 171 197 208 194 215 195 192 181 192 210 201 204 202 208 217 199 192 185 181 198 202 224 252 250 241 260 262 254 251 240 249 255 263 281 308 332 294 271 251 240 233 227
209 196 180 171 192 203 192 210 196 180 208 227 210 166 202 95 60 45 75 77 126 180 197 186 172 181 243 2 297 290 239 249 247 248 253 266 273 14 297 267 275 265 244 242 234
Height
1537 1536 1535 1535 1533 1531 1528 1525 1524 1520 1518 1516 1514 1512 1510 1508 1506 1503 1498 1499 1500 1501 1502 1506 1508 1509 1509 1507 1506 1505 1495 1483 1472 1476 1490 1475 1484 1492 1496 1501 1504 1504 1503 1510 1516
1534 1534 1533 1532 1529 1529 1526 1522 1520 1518 1516 1513 1511 1510 1510 1507 1503 1498 1495 1495 1497 1499 1501 1505 1506 1507 1506 1504 1504 1499 1491 1473 1470 1475 1484 1491 1488 1500 1496 1498 1505 1509 1508 1514 1519
1531 1530 1530 1528 1527 1525 1524 1521 1518 1515 1513 1511 1510 1510 1509 1506 1502 1495 1494 1494 1496 1499 1503 1505 1505 1505 1501 1499 1499 1495 1487 1481 1487 1473 1481 1486 1489 1490 1498 1495 1495 1504 1513 1518 1521
1528 1527 1527 1526 1524 1522 1520 1518 1515 1513 1512 1510 1509 1509 1508 1507 1498 1495 1494 1494 1496 1499 1503 1504 1504 1503 1499 1496 1497 1492 1489 1485 1482 1481 1485 1486 1486 1497 1511 1519 1502 1508 1515 1518 1523
1525 1524 1524 1523 1521 1520 1517 1515 1512 1511 1510 1509 1509 1509 1509 1508 1502 1496 1495 1496 1497 1500 1503 1504 1503 1500 1496 1494 1494 1493 1487 1491 1491 1489 1489 1489 1489 1494 1499 1502 1504 1511 1518 1521 1526
1522 1522 1521 1520 1519 1517 1514 1513 1510 1510 1509 1508 1508 1509 1509 1508 1500 1498 1497 1498 1498 1500 1503 1504 1501 1499 1494 1492 1490 1489 1490 1493 1491 1491 1491 1489 1490 1497 1505 1506 1511 1515 1519 1524 1527
1518 1518 1518 1516 1516 1514 1512 1511 1509 1508 1507 1507 1508 1508 1508 1502 1500 1499 1498 1498 1500 1501 1502 1502 1502 1501 1497 1492 1491 1491 1491 1496 1493 1493 1491 1492 1497 1502 1507 1510 1514 1517 1521 1526 1529
1516 1516 1515 1514 1514 1512 1509 1509 1508 1507 1507 1507 1508 1508 1504 1499 1499 1499 1499 1498 1498 1500 1501 1502 1502 1502 1499 1494 1493 1489 1486 1492 1494 1491 1494 1492 1501 1505 1509 1511 1514 1518 1523 1526 1530
1513 1513 1512 1512 1511 1510 1507 1507 1509 1506 1506 1506 1508 1509 1502 1496 1496 1497 1497 1497 1497 1498 1500 1502 1502 1501 1498 1493 1490 1487 1496 1492 1496 1488 1492 1491 1497 1505 1508 1508 1512 1518 1522 1526 1530
1510 1511 1510 1509 1509 1508 1507 1506 1508 1507 1506 1506 1508 1512 1497 1495 1495 1497 1496 1497 1497 1499 1501 1501 1500 1496 1492 1487 1501 1493 1487 1488 1490 1492 1490 1489 1497 1504 1506 1507 1512 1516 1522 1527 1530
1506 1507 1508 1507 1507 1506 1507 1508 1512 1508 1504 1499 1500 1495 1493 1495 1494 1495 1496 1496 1497 1496 1492 1495 1493 1491 1486 1487 1485 1481 1481 1483 1483 1490 1490 1491 1496 1502 1506 1508 1512 1515 1520 1525 1529
1503 1504 1505 1505 1505 1505 1505 1510 1508 1505 1499 1495 1498 1496 1493 1494 1494 1492 1495 1494 1491 1488 1492 1496 1499 1491 1484 1483 1483 1480 1482 1485 1489 1494 1493 1492 1495 1499 1504 1506 1509 1513 1517 1521 1526
1499 1501 1502 1502 1502 1501 1502 1505 1508 1503 1499 1492 1494 1494 1492 1493 1490 1488 1492 1488 1488 1492 1487 1484 1487 1489 1488 1487 1485 1482 1483 1489 1490 1493 1491 1486 1493 1500 1502 1507 1510 1512 1515 1519 1525
1495 1498 1499 1500 1504 1501 1501 1504 1505 1504 1493 1488 1489 1488 1490 1490 1489 1489 1490 1490 1488 1485 1485 1491 1489 1486 1482 1485 1483 1488 1482 1489 1489 1494 1496 1483 1498 1492 1501 1503 1509 1511 1514 1518 1523
1492 1494 1496 1499 1498 1501 1505 1505 1505 1504 1503 1477 1480 1484 1485 1487 1485 1487 1490 1489 1486 1485 1487 1487 1485 1482 1483 1484 1486 1503 1490 1486 1487 1488 1483 1487 1491 1517 1502 1500 1501 1509 1513 1517 1521
1488 1491 1494 1494 1495 1496 1499 1502 1505 1502 1494 1476 1475 1479 1483 1483 1484 1484 1487 1490 1490 1487 1483 1488 1485 1483 1484 1490 1490 1491 1490 1489 1487 1485 1500 1482 1491 1500 1489 1485 1493 1504 1511 1516 1519
1483 1487 1489 1490 1497 1493 1497 1503 1502 1495 1471 1472 1471 1473 1476 1479 1481 1481 1483 1487 1489 1500 1492 1485 1485 1490 1490 1492 1491 1490 1492 1501 1502 1500 1504 1479 1486 1480 1473 1478 1484 1500 1508 1515 1519
1477 1482 1484 1486 1492 1492 1496 1497 1494 1472 1467 1462 1466 1471 1474 1473 1476 1479 1478 1481 1480 1479 1482 1487 1499 1487 1488 1486 1488 1491 1487 1499 1514 1508 1492 1483 1494 1478 1472 1477 1484 1495 1506 1512 1517
1474 1476 1477 1478 1485 1491 1495 1491 1478 1462 1459 1465 1466 1472 1472 1473 1475 1477 1477 1473 1474 1477 1481 1480 1488 1488 1490 1490 1489 1486 1499 1486 1496 1500 1507 1491 1476 1466 1478 1482 1486 1494 1502 1509 1515
1470 1472 1470 1474 1483 1489 1486 1478 1466 1461 1459 1461 1469 1465 1471 1473 1478 1475 1475 1471 1477 1481 1478 1476 1488 1486 1493 1494 1494 1493 1487 1502 1499 1519 1517 1485 1481 1477 1480 1484 1486 1491 1498 1506 1512
1469 1471 1465 1469 1479 1488 1473 1467 1460 1463 1463 1463 1462 1464 1463 1468 1471 1473 1471 1476 1480 1481 1481 1478 1485 1492 1495 1492 1484 1493 1494 1495 1493 1496 1508 1505 1486 1475 1478 1480 1484 1488 1494 1502 1507
1461 1460 1461 1463 1474 1472 1466 1460 1461 1460 1463 1462 1462 1459 1463 1464 1471 1470 1471 1471 1479 1480 1482 1480 1482 1495 1489 1484 1486 1483 1482 1486 1503 1502 1503 1508 1496 1481 1483 1484 1485 1487 1491 1498 1504
1451 1452 1460 1462 1459 1461 1458 1456 1458 1457 1458 1461 1462 1460 1462 1465 1473 1469 1471 1482 1485 1483 1480 1483 1486 1497 1492 1490 1487 1487 1484 1485 1486 1499 1500 1513 1494 1481 1485 1487 1486 1486 1490 1495 1499
1441 1441 1453 1458 1454 1453 1453 1449 1458 1456 1454 1456 1457 1460 1464 1466 1466 1470 1473 1483 1486 1484 1487 1487 1481 1484 1492 1481 1475 1487 1482 1482 1488 1498 1496 1490 1482 1476 1478 1482 1484 1487 1487 1489 1494
1428 1422 1427 1439 1442 1445 1447 1449 1450 1453 1455 1456 1458 1459 1461 1467 1467 1471 1471 1483 1486 1488 1488 1486 1487 1481 1478 1482 1481 1479 1478 1479 1483 1482 1488 1482 1475 1470 1472 1475 1478 1482 1487 1487 1491
1416 1414 1423 1432 1441 1440 1442 1442 1443 1445 1450 1453 1451 1454 1456 1462 1465 1466 1469 1474 1476 1485 1484 1486 1486 1488 1493 1483 1485 1484 1478 1476 1475 1477 1474 1473 1475 1470 1474 1477 1481 1482 1485 1486 1489
1414 1413 1416 1424 1433 1436 1436 1439 1439 1442 1452 1448 1450 1453 1457 1462 1466 1468 1469 1471 1471 1477 1481 1485 1491 1495 1492 1495 1493 1503 1485 1476 1473 1471 1474 1479 1473 1474 1477 1480 1481 1482 1484 1486 1487